Location: Sternwarte auf dem Internationalen Platz Vogelsang IP
(50.5721°N, 6.4398°E)
Time: 00:55:03
(UTC+01:00)

Tiros 1 - Visible Passes

Search period start: 06 December 2025 00:00
Search period end: 16 December 2025 00:00
Orbit: 619 x 650 km, 48.4° (Epoch: 05 December)

Date Brightness Start Highest point End Pass type
(mag) Time Alt. Az. Time Alt. Az. Time Alt. Az.
06 Dec 7.9 17:37:43 10° W 17:42:10 49° SSW 17:46:35 10° SE visible
06 Dec 9.4 19:20:10 10° W 19:23:23 19° SW 19:25:35 14° S visible
07 Dec 8.6 17:59:37 10° W 18:03:48 34° SSW 18:07:57 10° SE visible
07 Dec 10.0 19:43:58 10° SW 19:44:43 10° SW 19:45:27 10° SW visible
08 Dec 9.4 18:21:46 10° W 18:25:19 22° SW 18:28:50 10° SSE visible
09 Dec 8.6 17:01:22 10° W 17:05:41 39° SSW 17:09:56 10° SE visible
09 Dec 10.0 18:44:40 10° WSW 18:46:41 13° SW 18:48:40 10° SSW visible
10 Dec 9.4 17:23:25 10° W 17:27:13 25° SSW 17:30:59 10° SSE visible
11 Dec 10.0 17:45:57 10° WSW 17:48:37 15° SW 17:51:16 10° S visible
